This is the latest recevied weather packets stored in our database for station/object WW1TA. If no packets are shown the sender has not sent any weather packets the latest 1 day(s).
| Time | Temp. | Humidity | Pressure | Rain* | Wind** | Luminosity | Snow |
|---|---|---|---|---|---|---|---|
| 1777986304 | 20° C | 69% | 1020.1 hPa | 0 mm | 0 m/s | 44 W/m² | - |
| 1777986003 | 20° C | 70% | 1020.1 hPa | 0 mm | 0.45 m/s, 263° | 44 W/m² | - |
| 1777985699 | 19.44° C | 72% | 1020 hPa | 0 mm | 0.45 m/s, 311° | 43 W/m² | - |
| 1777985395 | 18.89° C | 75% | 1020 hPa | 0 mm | 0.45 m/s, 217° | 40 W/m² | - |
| 1777985092 | 18.89° C | 76% | 1020.1 hPa | 0 mm | 0 m/s | 39 W/m² | - |
| 1777984788 | 18.33° C | 80% | 1020 hPa | 0 mm | 0 m/s | 38 W/m² | - |
| 1777984485 | 17.78° C | 84% | 1020 hPa | 0 mm | 0 m/s | 38 W/m² | - |
| 1777984181 | 17.22° C | 88% | 1020.3 hPa | 0 mm | 0 m/s | 35 W/m² | - |
| 1777983878 | 16.67° C | 91% | 1020.2 hPa | 0 mm | 0 m/s | 35 W/m² | - |
| 1777983575 | 16.11° C | 95% | 1020.1 hPa | 0 mm | 0 m/s | 35 W/m² | - |
| 1777983272 | 15.56° C | 96% | 1020 hPa | 0 mm | 0 m/s | 34 W/m² | - |
| 1777982967 | 15.56° C | 97% | 1020 hPa | 0 mm | 0 m/s | 33 W/m² | - |
| 1777982664 | 15° C | 98% | 1019.9 hPa | 0 mm | 0 m/s | 32 W/m² | - |
| 1777982363 | 15° C | 98% | 1019.9 hPa | 0 mm | 0 m/s | 33 W/m² | - |
| 1777982060 | 14.44° C | 98% | 1019.8 hPa | 0 mm | 0 m/s | 37 W/m² | - |
| 1777981758 | 14.44° C | 98% | 1019.8 hPa | 0 mm | 0 m/s | 29 W/m² | - |
| 1777981454 | 14.44° C | 98% | 1019.8 hPa | 0 mm | 0 m/s | 28 W/m² | - |
| 1777981150 | 13.89° C | 98% | 1019.5 hPa | 0 mm | 0 m/s | 26 W/m² | - |
| 1777980848 | 13.89° C | 98% | 1019.6 hPa | 0 mm | 0 m/s | 24 W/m² | - |
| 1777980543 | 13.33° C | 98% | 1019.6 hPa | 0 mm | 0 m/s | 23 W/m² | - |
| 1777980241 | 13.33° C | 98% | 1019.5 hPa | 0 mm | 0 m/s | 23 W/m² | - |
| 1777979937 | 12.78° C | 98% | 1019.5 hPa | 0 mm | 0 m/s | 21 W/m² | - |
| 1777979642 | 12.78° C | 98% | 1019.5 hPa | 0 mm | 0 m/s | 18 W/m² | - |
| 1777979328 | 12.78° C | 98% | 1019.3 hPa | 0 mm | 0 m/s | 16 W/m² | - |
| 1777979026 | 12.78° C | 98% | 1019.3 hPa | 0 mm | 0 m/s | 15 W/m² | - |
* Rain latest hour (hover to see other rain measurements)
** Current wind speed in m/s (hover to see current wind gust speed)